User: anonymous   Login
Location: Orinda
(37.8771°N, 122.1797°W)
Time: 19:31:38
(UTC+00:00)
Language:

Cosmos 2154 Rocket - Orbit

View from above orbital plane
View from above orbital plane
View from above satellite
View from above satellite

Ground track
Ground track

The orbit data is extracted from the following two-line orbital elements,

1 21667U 91059B   19341.82494528 +.00000012 +00000-0 -29190-5 0  9996
2 21667 082.9083 056.2032 0019551 253.6266 236.9487 13.75102404419610
Epoch (UTC): 07 December 2019 19:47:55
Eccentricity: 0.0019551
inclination: 82.9083°
perigee height: 967 km
apogee height: 995 km
right ascension of ascending node: 56.2032°
argument of perigee: 253.6266°
revolutions per day: 13.75102404
mean anomaly at epoch: 236.9487°
orbit number at epoch: 41961

The dashed part of the orbit path shows where the satellite is in the earth's shadow,  

DLR